Time,TemperatureF,DewpointF,PressureIn,WindDirection,WindDirectionDegrees,WindSpeedMPH,WindSpeedGustMPH,Humidity,HourlyPrecipIn,Conditions,Clouds,dailyrainin,SoftwareType,DateUTC
2013-04-21 00:12:00,35.1,28.0,30.44,WNW,298,0.0,0.0,75,0.00,,,0.00,weatherlink.com 1.10,2013-04-21 04:12:00,
2013-04-21 00:27:00,35.3,28.0,30.45,WNW,298,0.0,0.0,74,0.00,,,0.00,weatherlink.com 1.10,2013-04-21 04:27:00,
2013-04-21 00:42:00,35.5,28.0,30.46,WNW,298,0.0,0.0,74,0.00,,,0.00,weatherlink.com 1.10,2013-04-21 04:42:00,
2013-04-21 00:57:00,35.6,28.0,30.46,WNW,298,0.0,0.0,74,0.00,,,0.00,weatherlink.com 1.10,2013-04-21 04:57:00,
2013-04-21 01:12:00,35.8,29.0,30.46,WNW,298,0.0,0.0,75,0.00,,,0.00,weatherlink.com 1.10,2013-04-21 05:12:00,
2013-04-21 01:27:00,35.9,29.0,30.47,WNW,298,0.0,0.0,75,0.00,,,0.00,weatherlink.com 1.10,2013-04-21 05:27:00,
2013-04-21 01:42:00,35.7,28.0,30.47,NNE,26,0.0,1.0,74,0.00,,,0.00,weatherlink.com 1.10,2013-04-21 05:42:00,
2013-04-21 01:57:00,35.5,27.0,30.48,NE,55,0.0,4.0,71,0.00,,,0.00,weatherlink.com 1.10,2013-04-21 05:57:00,
2013-04-21 02:12:00,35.4,28.0,30.48,NE,45,0.0,1.0,74,0.00,,,0.00,weatherlink.com 1.10,2013-04-21 06:12:00,
2013-04-21 02:27:00,35.3,27.0,30.48,NNE,20,0.0,4.0,72,0.00,,,0.00,weatherlink.com 1.10,2013-04-21 06:27:00,
2013-04-21 02:42:00,35.2,26.0,30.49,NNE,20,0.0,1.0,70,0.00,,,0.00,weatherlink.com 1.10,2013-04-21 06:42:00,
2013-04-21 02:57:00,35.2,26.0,30.49,NE,50,0.0,2.0,70,0.00,,,0.00,weatherlink.com 1.10,2013-04-21 06:57:00,
2013-04-21 03:12:00,35.1,27.0,30.49,NE,40,0.0,0.0,71,0.00,,,0.00,weatherlink.com 1.10,2013-04-21 07:12:00,
2013-04-21 03:27:00,34.8,26.0,30.50,NE,40,0.0,0.0,71,0.00,,,0.00,weatherlink.com 1.10,2013-04-21 07:27:00,
2013-04-21 03:42:00,34.5,27.0,30.50,NE,40,0.0,0.0,74,0.00,,,0.00,weatherlink.com 1.10,2013-04-21 07:42:00,
2013-04-21 03:57:00,34.1,27.0,30.50,NE,40,0.0,0.0,75,0.00,,,0.00,weatherlink.com 1.10,2013-04-21 07:57:00,
2013-04-21 04:12:00,33.3,27.0,30.51,NE,40,0.0,2.0,78,0.00,,,0.00,weatherlink.com 1.10,2013-04-21 08:12:00,
2013-04-21 04:27:00,32.7,27.0,30.51,NE,40,0.0,0.0,80,0.00,,,0.00,weatherlink.com 1.10,2013-04-21 08:27:00,
2013-04-21 04:42:00,32.1,27.0,30.52,NE,40,0.0,0.0,81,0.00,,,0.00,weatherlink.com 1.10,2013-04-21 08:42:00,
2013-04-21 04:57:00,31.6,27.0,30.52,NE,40,0.0,0.0,83,0.00,,,0.00,weatherlink.com 1.10,2013-04-21 08:57:00,
2013-04-21 05:12:00,31.4,27.0,30.53,NE,39,0.0,0.0,84,0.00,,,0.00,weatherlink.com 1.10,2013-04-21 09:12:00,
2013-04-21 05:27:00,31.3,27.0,30.53,NE,39,0.0,0.0,85,0.00,,,0.00,weatherlink.com 1.10,2013-04-21 09:27:00,
2013-04-21 05:42:00,31.2,27.0,30.54,NE,40,0.0,0.0,85,0.00,,,0.00,weatherlink.com 1.10,2013-04-21 09:42:00,
2013-04-21 05:57:00,31.1,27.0,30.54,NE,40,0.0,0.0,84,0.00,,,0.00,weatherlink.com 1.10,2013-04-21 09:57:00,
2013-04-21 06:12:00,31.0,27.0,30.55,NE,40,0.0,0.0,85,0.00,,,0.00,weatherlink.com 1.10,2013-04-21 10:12:00,
2013-04-21 06:27:00,30.9,27.0,30.55,NE,40,0.0,0.0,85,0.00,,,0.00,weatherlink.com 1.10,2013-04-21 10:27:00,
2013-04-21 06:42:00,30.8,27.0,30.56,NE,40,0.0,0.0,85,0.00,,,0.00,weatherlink.com 1.10,2013-04-21 10:42:00,
2013-04-21 06:58:00,30.7,27.0,30.57,NE,40,0.0,0.0,85,0.00,,,0.00,weatherlink.com 1.10,2013-04-21 10:58:00,
2013-04-21 07:13:00,30.7,27.0,30.58,NE,40,0.0,0.0,85,0.00,,,0.00,weatherlink.com 1.10,2013-04-21 11:13:00,
2013-04-21 07:28:00,30.8,27.0,30.59,NE,40,0.0,0.0,86,0.00,,,0.00,weatherlink.com 1.10,2013-04-21 11:28:00,
2013-04-21 07:43:00,31.1,28.0,30.60,NE,40,0.0,0.0,87,0.00,,,0.00,weatherlink.com 1.10,2013-04-21 11:43:00,
2013-04-21 07:58:00,31.7,28.0,30.61,NE,40,0.0,1.0,86,0.00,,,0.00,weatherlink.com 1.10,2013-04-21 11:58:00,
2013-04-21 08:13:00,32.7,28.0,30.61,East,90,2.0,3.0,84,0.00,,,0.00,weatherlink.com 1.10,2013-04-21 12:13:00,
2013-04-21 08:28:00,34.4,28.0,30.62,ENE,76,4.0,9.0,78,0.00,,,0.00,weatherlink.com 1.10,2013-04-21 12:28:00,
2013-04-21 08:43:00,36.0,29.0,30.62,ESE,116,1.0,7.0,75,0.00,,,0.00,weatherlink.com 1.10,2013-04-21 12:43:00,
2013-04-21 08:58:00,37.4,30.0,30.63,East,97,2.0,8.0,74,0.00,,,0.00,weatherlink.com 1.10,2013-04-21 12:58:00,
2013-04-21 09:13:00,38.7,30.0,30.63,ENE,78,3.0,6.0,70,0.00,,,0.00,weatherlink.com 1.10,2013-04-21 13:13:00,
2013-04-21 09:28:00,39.8,30.0,30.63,SSE,160,1.0,5.0,67,0.00,,,0.00,weatherlink.com 1.10,2013-04-21 13:28:00,
2013-04-21 09:43:00,41.2,28.0,30.63,East,83,1.0,6.0,60,0.00,,,0.00,weatherlink.com 1.10,2013-04-21 13:43:00,
2013-04-21 09:58:00,41.6,27.0,30.63,South,174,3.0,7.0,56,0.00,,,0.00,weatherlink.com 1.10,2013-04-21 13:58:00,
2013-04-21 10:13:00,41.6,28.0,30.63,SE,137,1.0,4.0,58,0.00,,,0.00,weatherlink.com 1.10,2013-04-21 14:13:00,
2013-04-21 10:28:00,42.2,28.0,30.63,ENE,77,3.0,10.0,57,0.00,,,0.00,weatherlink.com 1.10,2013-04-21 14:28:00,
2013-04-21 10:43:00,42.2,28.0,30.63,SE,139,1.0,7.0,58,0.00,,,0.00,weatherlink.com 1.10,2013-04-21 14:43:00,
2013-04-21 10:58:00,42.5,26.0,30.63,ESE,103,1.0,8.0,53,0.00,,,0.00,weatherlink.com 1.10,2013-04-21 14:58:00,
2013-04-21 11:13:00,43.4,28.0,30.63,NNE,33,3.0,10.0,54,0.00,,,0.00,weatherlink.com 1.10,2013-04-21 15:13:00,
2013-04-21 11:28:00,43.2,27.0,30.63,East,97,0.0,8.0,54,0.00,,,0.00,weatherlink.com 1.10,2013-04-21 15:28:00,
2013-04-21 11:43:00,44.7,28.0,30.63,SSE,153,2.0,10.0,53,0.00,,,0.00,weatherlink.com 1.10,2013-04-21 15:43:00,
2013-04-21 11:58:00,44.7,28.0,30.63,NNE,30,2.0,8.0,52,0.00,,,0.00,weatherlink.com 1.10,2013-04-21 15:58:00,
2013-04-21 12:13:00,45.8,27.0,30.62,North,8,3.0,5.0,49,0.00,,,0.00,weatherlink.com 1.10,2013-04-21 16:13:00,
2013-04-21 12:28:00,46.1,28.0,30.61,SE,129,3.0,4.0,50,0.00,,,0.00,weatherlink.com 1.10,2013-04-21 16:28:00,
2013-04-21 12:44:00,45.7,29.0,30.61,NNE,27,2.0,10.0,52,0.00,,,0.00,weatherlink.com 1.10,2013-04-21 16:44:00,
2013-04-21 12:58:00,46.9,27.0,30.60,ENE,73,0.0,7.0,47,0.00,,,0.00,weatherlink.com 1.10,2013-04-21 16:58:00,
2013-04-21 13:13:00,47.0,28.0,30.60,SE,139,1.0,9.0,48,0.00,,,0.00,weatherlink.com 1.10,2013-04-21 17:13:00,
2013-04-21 13:28:00,46.3,27.0,30.59,East,87,5.0,10.0,48,0.00,,,0.00,weatherlink.com 1.10,2013-04-21 17:28:00,
2013-04-21 13:43:00,45.8,29.0,30.59,East,81,7.0,10.0,53,0.00,,,0.00,weatherlink.com 1.10,2013-04-21 17:43:00,
2013-04-21 13:58:00,46.4,30.0,30.58,NE,54,2.0,7.0,53,0.00,,,0.00,weatherlink.com 1.10,2013-04-21 17:58:00,
2013-04-21 14:13:00,46.3,31.0,30.58,NE,40,6.0,11.0,55,0.00,,,0.00,weatherlink.com 1.10,2013-04-21 18:13:00,
2013-04-21 14:28:00,45.9,31.0,30.57,NE,37,6.0,13.0,56,0.00,,,0.00,weatherlink.com 1.10,2013-04-21 18:28:00,
2013-04-21 14:43:00,45.7,31.0,30.57,North,359,7.0,11.0,57,0.00,,,0.00,weatherlink.com 1.10,2013-04-21 18:43:00,
2013-04-21 14:58:00,44.9,30.0,30.56,NNE,18,3.0,12.0,56,0.00,,,0.00,weatherlink.com 1.10,2013-04-21 18:58:00,
2013-04-21 15:13:00,45.8,31.0,30.55,NE,43,2.0,10.0,57,0.00,,,0.00,weatherlink.com 1.10,2013-04-21 19:13:00,
2013-04-21 15:28:00,44.4,30.0,30.55,West,275,2.0,14.0,57,0.00,,,0.00,weatherlink.com 1.10,2013-04-21 19:28:00,
2013-04-21 15:43:00,44.5,32.0,30.55,NE,35,2.0,14.0,61,0.00,,,0.00,weatherlink.com 1.10,2013-04-21 19:43:00,
2013-04-21 15:58:00,44.1,30.0,30.54,NW,320,6.0,13.0,57,0.00,,,0.00,weatherlink.com 1.10,2013-04-21 19:58:00,
2013-04-21 16:13:00,42.6,29.0,30.54,NE,55,7.0,15.0,59,0.00,,,0.00,weatherlink.com 1.10,2013-04-21 20:13:00,
2013-04-21 16:28:00,42.7,29.0,30.53,NNW,344,7.0,13.0,58,0.00,,,0.00,weatherlink.com 1.10,2013-04-21 20:28:00,
2013-04-21 16:43:00,42.8,29.0,30.53,NNE,19,3.0,11.0,59,0.00,,,0.00,weatherlink.com 1.10,2013-04-21 20:43:00,
2013-04-21 16:58:00,42.0,28.0,30.53,NE,39,7.0,15.0,58,0.00,,,0.00,weatherlink.com 1.10,2013-04-21 20:58:00,
2013-04-21 17:13:00,42.6,29.0,30.52,East,93,2.0,13.0,58,0.00,,,0.00,weatherlink.com 1.10,2013-04-21 21:13:00,
2013-04-21 17:28:00,42.6,28.0,30.52,NNE,20,4.0,12.0,57,0.00,,,0.00,weatherlink.com 1.10,2013-04-21 21:28:00,
2013-04-21 17:43:00,43.0,28.0,30.52,East,85,3.0,11.0,56,0.00,,,0.00,weatherlink.com 1.10,2013-04-21 21:43:00,
2013-04-21 17:59:00,42.6,29.0,30.52,NE,36,6.0,13.0,60,0.00,,,0.00,weatherlink.com 1.10,2013-04-21 21:59:00,
2013-04-21 18:14:00,42.7,28.0,30.52,North,10,10.0,11.0,57,0.00,,,0.00,weatherlink.com 1.10,2013-04-21 22:14:00,
2013-04-21 18:29:00,42.2,29.0,30.52,ENE,70,7.0,12.0,59,0.00,,,0.00,weatherlink.com 1.10,2013-04-21 22:29:00,
2013-04-21 18:44:00,42.4,29.0,30.52,NE,50,0.0,8.0,60,0.00,,,0.00,weatherlink.com 1.10,2013-04-21 22:44:00,
2013-04-21 18:59:00,41.9,29.0,30.52,NNE,33,2.0,12.0,61,0.00,,,0.00,weatherlink.com 1.10,2013-04-21 22:59:00,
2013-04-21 19:14:00,41.6,29.0,30.51,ENE,60,3.0,9.0,61,0.00,,,0.00,weatherlink.com 1.10,2013-04-21 23:14:00,
2013-04-21 19:29:00,41.2,29.0,30.51,NNE,28,1.0,7.0,62,0.00,,,0.00,weatherlink.com 1.10,2013-04-21 23:29:00,
2013-04-21 19:44:00,41.1,29.0,30.51,NNE,14,0.0,6.0,63,0.00,,,0.00,weatherlink.com 1.10,2013-04-21 23:44:00,
2013-04-21 19:59:00,40.9,29.0,30.51,NE,52,1.0,7.0,63,0.00,,,0.00,weatherlink.com 1.10,2013-04-21 23:59:00,
2013-04-21 20:14:00,40.6,29.0,30.51,NNE,25,0.0,2.0,64,0.00,,,0.00,weatherlink.com 1.10,2013-04-22 00:14:00,
2013-04-21 20:29:00,40.4,29.0,30.51,NNE,31,0.0,4.0,65,0.00,,,0.00,weatherlink.com 1.10,2013-04-22 00:29:00,
2013-04-21 20:44:00,40.2,30.0,30.50,NE,39,0.0,3.0,66,0.00,,,0.00,weatherlink.com 1.10,2013-04-22 00:44:00,
2013-04-21 20:59:00,40.0,30.0,30.50,ENE,64,0.0,2.0,68,0.00,,,0.00,weatherlink.com 1.10,2013-04-22 00:59:00,
2013-04-21 21:14:00,39.9,30.0,30.51,ENE,64,0.0,0.0,69,0.00,,,0.00,weatherlink.com 1.10,2013-04-22 01:14:00,
2013-04-21 21:29:00,39.7,31.0,30.51,ENE,64,0.0,0.0,71,0.00,,,0.00,weatherlink.com 1.10,2013-04-22 01:29:00,
2013-04-21 21:44:00,39.5,31.0,30.51,ENE,64,0.0,0.0,72,0.00,,,0.00,weatherlink.com 1.10,2013-04-22 01:44:00,
2013-04-21 21:59:00,39.3,31.0,30.51,ENE,64,0.0,0.0,72,0.00,,,0.00,weatherlink.com 1.10,2013-04-22 01:59:00,
2013-04-21 22:14:00,38.9,30.0,30.51,ENE,64,0.0,1.0,71,0.00,,,0.00,weatherlink.com 1.10,2013-04-22 02:14:00,
2013-04-21 22:29:00,38.7,29.0,30.51,ENE,64,0.0,0.0,68,0.00,,,0.00,weatherlink.com 1.10,2013-04-22 02:29:00,
2013-04-21 22:44:00,38.5,29.0,30.50,ENE,64,0.0,0.0,70,0.00,,,0.00,weatherlink.com 1.10,2013-04-22 02:44:00,
2013-04-21 22:59:00,38.3,30.0,30.50,NE,45,0.0,2.0,71,0.00,,,0.00,weatherlink.com 1.10,2013-04-22 02:59:00,
2013-04-21 23:14:00,38.3,29.0,30.50,NE,45,0.0,1.0,70,0.00,,,0.00,weatherlink.com 1.10,2013-04-22 03:14:00,
2013-04-21 23:29:00,38.3,29.0,30.50,NE,45,0.0,1.0,69,0.00,,,0.00,weatherlink.com 1.10,2013-04-22 03:29:00,
2013-04-21 23:44:00,38.3,30.0,30.49,ENE,77,0.0,2.0,72,0.00,,,0.00,weatherlink.com 1.10,2013-04-22 03:44:00,
2013-04-21 23:59:00,38.3,30.0,30.49,ENE,77,0.0,0.0,71,0.00,,,0.00,weatherlink.com 1.10,2013-04-22 03:59:00,